TimeEDT,TemperatureF,Dew PointF,Humidity,Sea Level PressureIn,VisibilityMPH,Wind Direction,Wind SpeedMPH,Gust SpeedMPH,PrecipitationIn,Events,Conditions,WindDirDegrees,DateUTC
12:53 AM,43.0,37.0,80,30.16,10.0,NW,5.8,-,N/A,,Clear,320,2013-05-24 04:53:00
1:53 AM,42.1,37.0,82,30.17,10.0,NW,5.8,-,N/A,,Clear,320,2013-05-24 05:53:00
2:53 AM,44.1,39.0,82,30.17,10.0,NNW,5.8,-,N/A,,Overcast,330,2013-05-24 06:53:00
3:53 AM,46.0,39.9,79,30.18,10.0,North,4.6,-,N/A,,Overcast,360,2013-05-24 07:53:00
4:53 AM,45.0,35.1,68,30.21,10.0,North,9.2,-,N/A,,Overcast,10,2013-05-24 08:53:00
5:53 AM,43.0,33.1,68,30.24,10.0,North,11.5,19.6,N/A,,Mostly Cloudy,10,2013-05-24 09:53:00
6:44 AM,42.8,33.8,70,30.25,10.0,North,10.4,-,N/A,,Mostly Cloudy,350,2013-05-24 10:44:00
6:53 AM,42.1,32.0,67,30.26,10.0,North,11.5,18.4,N/A,,Mostly Cloudy,360,2013-05-24 10:53:00
7:41 AM,42.8,30.2,61,30.27,10.0,North,13.8,-,N/A,,Scattered Clouds,360,2013-05-24 11:41:00
7:53 AM,42.1,32.0,67,30.28,9.0,North,12.7,-,N/A,,Partly Cloudy,10,2013-05-24 11:53:00
8:09 AM,42.8,30.2,61,30.29,10.0,North,11.5,-,N/A,,Mostly Cloudy,360,2013-05-24 12:09:00
8:53 AM,45.0,32.0,60,30.31,10.0,North,10.4,-,N/A,,Mostly Cloudy,10,2013-05-24 12:53:00
9:18 AM,44.6,30.2,57,30.31,10.0,North,12.7,20.7,N/A,,Scattered Clouds,350,2013-05-24 13:18:00
9:53 AM,45.0,30.9,58,30.33,10.0,North,11.5,-,N/A,,Mostly Cloudy,350,2013-05-24 13:53:00
10:16 AM,48.2,33.8,58,30.32,10.0,NNW,11.5,-,N/A,,Mostly Cloudy,330,2013-05-24 14:16:00
10:31 AM,46.4,32.0,57,30.32,10.0,NNW,11.5,-,N/A,,Mostly Cloudy,340,2013-05-24 14:31:00
10:53 AM,50.0,34.0,54,30.33,10.0,North,12.7,-,N/A,,Mostly Cloudy,350,2013-05-24 14:53:00
11:53 AM,52.0,34.0,50,30.35,10.0,North,13.8,-,N/A,,Mostly Cloudy,360,2013-05-24 15:53:00
12:53 PM,53.1,34.0,48,30.35,10.0,North,9.2,24.2,N/A,,Mostly Cloudy,10,2013-05-24 16:53:00
1:53 PM,54.0,34.0,47,30.35,10.0,North,12.7,18.4,N/A,,Scattered Clouds,360,2013-05-24 17:53:00
2:53 PM,57.0,35.1,44,30.34,10.0,North,9.2,-,N/A,,Clear,360,2013-05-24 18:53:00
3:53 PM,57.0,35.1,44,30.34,10.0,NNW,6.9,18.4,N/A,,Partly Cloudy,340,2013-05-24 19:53:00
4:53 PM,57.9,35.1,42,30.34,10.0,NNW,11.5,-,N/A,,Clear,330,2013-05-24 20:53:00
5:53 PM,57.9,34.0,41,30.33,10.0,NNW,10.4,-,N/A,,Clear,340,2013-05-24 21:53:00
6:53 PM,57.0,33.1,40,30.32,10.0,North,6.9,-,N/A,,Clear,360,2013-05-24 22:53:00
7:53 PM,55.9,33.1,42,30.31,10.0,NNW,6.9,-,N/A,,Clear,340,2013-05-24 23:53:00
8:53 PM,53.1,34.0,48,30.31,10.0,NNW,4.6,-,N/A,,Clear,330,2013-05-25 00:53:00
9:53 PM,46.9,37.9,71,30.31,10.0,Calm,Calm,-,N/A,,Clear,0,2013-05-25 01:53:00
10:53 PM,46.9,36.0,66,30.33,10.0,Calm,Calm,-,N/A,,Clear,0,2013-05-25 02:53:00
11:53 PM,42.1,36.0,79,30.35,10.0,Calm,Calm,-,N/A,,Clear,0,2013-05-25 03:53:00